Погода в Алексеево-Дружковке

Украина / Донецкая область     48˚34′44″N   37˚36′42″E
темп.,
°C
ветер,
м/с
пор.,
м/с
влажн.,
%
обл.,
%
осадки,
мм/ч
давл.,
гПа
погр.,
м
6 декабря, вс
вс623:00−5˚в612450 0.0 1036401
02:00−6˚в612500 0.0 1037369
05:00−7˚в713550 0.0 1036375
08:00−7˚в712590 0.0 1036422
11:00−4˚в711600 0.0 1036516
14:00−4˚в712550 0.0 1035551
17:00−6˚всв813650 0.0 1036518
20:00−7˚в713690 0.0 1036540
7 декабря, пн
пн723:00−7˚в713690 0.0 1036531
02:00−8˚в713690 0.0 1036500
05:00−8˚в814690 0.0 1035512
08:00−8˚в816630 0.0 1035541
11:00−4˚в814450 0.0 1034651
14:00−3˚в813450 0.0 1033643
17:00−5˚в814570 0.0 1034517
20:00−6˚в714630 0.0 1034496
8 декабря, вт
вт823:00−7˚в714640 0.0 1033480
02:00−7˚в814650 0.0 1032442
05:00−7˚в815650 0.0 1031446
08:00−6˚в714610 0.0 1031505
11:00−2˚в814480 0.0 1031643
14:00−1˚в813460 0.0 1030657
17:00−4˚в815500 0.0 1030491
20:00−4˚в713600 0.0 1030493
9 декабря, ср
ср923:00−5˚в613620 0.0 1030491
02:00−5˚в713660 0.0 1030462
05:00−6˚в613710 0.0 1030427
08:00−5˚в7137223 0.0 1030482
11:00−1˚вюв7126678 0.0 1031652
14:00в7116272 0.0 1030643
17:00−3˚в6126686 0.0 1030429
20:00−2˚вюв6137392 0.0 1031608
10 декабря, чт
чт1023:00−1˚вюв61172100 0.0 1032530
02:00−3˚в5118068 0.0 1032363
05:00−4˚в510866 0.0 1032339
08:00−3˚в511849 0.0 1032361
11:00+1˚вюв611630 0.0 1032478
14:00+1˚в610580 0.0 1031547
17:00−2˚в612610 0.0 1031354
20:00−3˚в511620 0.0 1031395